www.pogodaiklimat.ru

Погода и климат >> Архив погоды >> Туркменистан >> Дашогуз


ПОГОДА в Дашогузе

  • Прогноз погоды в Дашогузе
  • Монитор погоды в Дашогузе

АРХИВ ПОГОДЫ в Дашогузе

Время (UTC), дата Ветер
(напр.,м/с)
 
Видим.   Явления Облачность Т
(С)
Тd
(С)
f
(%)
Тe
(С)
Тes
(С)
Комфортность P
(гПа)
Po
(гПа)
Тmin
(С)
Tmax
(С)
R
(мм)
R24
(мм)
S
(см)
21 18.08 СВ 4 10 км ясно +23.0 +11.4 48 +25 +25 комфорт 1015.2 1005.5
00 19.08 В 5 10 км ясно +23.5 +11.9 48 +25 +25 комфорт 1015.6 1006.0
03 19.08 В 5 10 км ясно +25.2 +9.3 37 +26 +27 жарко 1017.1 1007.5 +21.5
06 19.08 В 8 10 км ясно +31.6 +9.9 26 +31 +33 жарко 1017.3 1007.9 +21.5
09 19.08 В 8 10 км ясно +33.0 +9.0 23 +32 +35 жарко 1016.7 1007.3
12 19.08 СВ 5 10 км ясно +33.7 +9.2 22 +32 +35 жарко 1015.6 1006.3
15 19.08 СВ 2 10 км ясно +32.3 +11.5 28 +32 +32 жарко 1016.0 1006.6 +34.4
18 19.08 СВ 4 10 км ясно +25.6 +9.4 36 +26 +26 жарко 1016.4 1006.8 +34.4
21 19.08 СВ 4 10 км ясно +22.6 +8.2 40 +24 +24 комфорт 1016.3 1006.6
00 20.08 СВ 3 10 км ясно +21.2 +8.8 45 +22 +22 комфорт 1016.7 1006.9
03 20.08 СВ 4 10 км ясно +23.7 +8.6 38 +24 +26 комфорт 1017.7 1008.0 +20.5
06 20.08 В 8 10 км ясно +32.5 +12.8 30 +33 +35 жарко 1018.4 1009.0 +20.5
09 20.08 СВ 7 10 км ясно +34.6 +11.2 24 +34 +38 очень
жарко
1017.4 1008.1
12 20.08 В 5 10 км ясно +36.2 +13.8 26 +37 +40 очень
жарко
1016.1 1006.8
15 20.08 С 3 10 км ясно +33.6 +15.1 33 +35 +35 душно 1015.2 1005.9 +36.8
18 20.08 С 4 10 км 3/0
[Ci fib]
+27.6 +13.2 41 +29 +29 жарко 1015.6 1006.1 +36.8
21 20.08 С 3 10 км ясно +24.5 +12.1 46 +26 +26 жарко 1014.9 1005.3
00 21.08 С 3 10 км ясно +22.7 +11.4 49 +25 +25 комфорт 1014.3 1004.6
03 21.08 С 4 10 км ясно +24.3 +10.6 42 +25 +27 комфорт 1014.6 1005.0 +21.5
06 21.08 СВ 6 10 км ясно +32.5 +14.9 35 +35 +40 душно 1014.9 1005.3 +21.5
09 21.08 СВ 7 10 км ясно +36.3 +14.7 28 +38 +42 очень
душно
1013.5 1004.3
12 21.08 СВ 7 10 км ясно +37.7 +10.2 19 +36 +38 очень
жарко
1011.8 1002.6
15 21.08 СВ 4 10 км ясно +33.0 +13.6 31 +34 +34 очень
жарко
1011.6 1002.3 +38.2
18 21.08 С 3 10 км ясно +28.0 +12.2 38 +29 +29 жарко 1012.0 1002.5 +38.2
21 21.08 С 3 10 км ясно +25.0 +12.1 45 +27 +27 жарко 1011.5 1001.9
00 22.08 СВ 3 10 км ясно +23.8 +11.1 45 +25 +25 комфорт 1011.3 1001.7
03 22.08 СВ 2 10 км ясно +26.4 +11.8 40 +28 +30 жарко 1012.1 1002.6 +23.4
06 22.08 СЗ 4 10 км ясно +33.1 +14.7 33 +35 +43 душно 1012.2 1002.9 +23.4
09 22.08 С 6 10 км 3/0
[Ac cast]
+37.5 +13.0 23 +37 +42 очень
жарко
1011.2 1002.0
12 22.08 С 5 10 км 3/0
[Ac cast]
+38.0 +11.3 20 +37 +39 очень
жарко
1010.3 1001.1
15 22.08 СЗ 3 10 км 3/0
[Ac trans]
+34.0 +14.2 30 +35 +35 очень
жарко
1010.2 1000.9 +38.6
18 22.08 С 3 10 км 3/0
[Ac trans]
+28.2 +13.4 40 +30 +30 жарко 1011.2 1001.7 +38.6
21 22.08 СВ 4 10 км 3/0
[Ac trans]
+25.5 +11.7 42 +27 +27 жарко 1011.4 1001.9
00 23.08 СВ 3 10 км 3/0
[Ac trans]
+22.6 +11.8 50 +25 +25 комфорт 1011.9 1002.2
03 23.08 СВ 5 10 км ясно +24.3 +10.6 42 +25 +27 комфорт 1013.6 1004.0 +2.2
06 23.08 СВ 5 10 км ясно +30.4 +10.3 29 +30 +37 жарко 1014.5 1005.0 +2.2
09 23.08 СВ 6 10 км ясно +32.6 +8.2 22 +31 +37 жарко 1013.7 1004.4
12 23.08 СВ 7 10 км ясно +33.4 +4.3 16 +31 +32 жарко 1013.4 1004.1
15 23.08 СВ 3 10 км ясно +30.0 +8.2 26 +29 +29 жарко 1013.9 1004.5 +34.4
18 23.08 В 6 10 км ясно +26.8 +7.3 29 +26 +26 жарко 1015.1 1005.5 +34.4
21 23.08 В 5 10 км ясно +23.5 +7.3 35 +24 +24 комфорт 1015.0 1005.3
00 24.08 СВ 3 10 км ясно +18.6 +4.6 40 +19 +19 1015.7 1005.9
03 24.08 СВ 4 10 км ясно +20.0 +7.0 43 +21 +22 комфорт 1016.8 1007.0 +17.1
06 24.08 В 7 10 км ясно +28.6 +9.7 31 +29 +32 жарко 1017.1 1007.6 +17.1
09 24.08 СВ 6 10 км ясно +31.4 +9.5 26 +31 +37 жарко 1015.5 1006.0
12 24.08 СВ 6 10 км ясно +32.2 +9.0 24 +31 +33 жарко 1014.0 1004.6
15 24.08 С 3 10 км ясно +29.2 +8.0 26 +28 +28 жарко 1014.2 1004.7 +33.4
18 24.08 С 3 10 км ясно +22.8 +8.5 40 +24 +24 комфорт 1014.8 1005.1 +33.4
21 24.08 СВ 4 10 км ясно +19.8 +7.6 45 +21 +21 комфорт 1013.7 1003.9
00 25.08 С 3 10 км ясно +17.8 +6.2 47 +18 +18 1013.7 1003.8
03 25.08 СВ 5 10 км ясно +18.8 +6.4 44 +19 +20 1013.7 1003.9 +16.2
06 25.08 СВ 6 10 км ясно +29.5 +8.2 26 +29 +34 жарко 1014.0 1004.5 +16.2
09 25.08 СВ 6 10 км ясно +32.8 +5.1 18 +31 +36 жарко 1012.3 1003.0
12 25.08 С 6 10 км ясно +33.8 +3.4 15 +31 +33 жарко 1011.0 1001.7
15 25.08 С 4 10 км ясно +29.7 +10.4 30 +30 +30 жарко 1010.8 1001.4 +34.3
18 25.08 С 4 10 км ясно +23.0 +7.0 36 +24 +24 комфорт 1011.7 1002.0 +34.3

 

Местоположение метеостанции Дашогуз (Дашогузский велаят, Туркменистан): широта 41.75 долгота 59.82 высота над уровнем моря 82 м.

В архиве по умолчанию представлена погода в Дашогузе за последнюю неделю. Архивные данные за месяц целиком и за предыдущие месяцы, начиная с января 2011 года, Вы можете получить, выбрав интересующий диапазон дат из раскрывающегося списка и нажав кнопку "Ввод!".


*Определитесь, кто Вы:
робот инопланетянин человек

Внимание! Время в таблицах - всемирное. Для получения местного времени необходимо прибавить поправку, которая равна 5 ч.

Смотрите также архив погоды в соседних городах и на ближайших метеорологических станциях:

Погода в Гурлене (Хорезмская область, Узбекистан) (49 км)
Погода в Хиве (Хорезмская область, Узбекистан) (61 км)
Погода в Ургенче (Хорезмская область, Узбекистан) (65 км)
Погода в Тахиаташе (Каракалпакстан, Узбекистан) (75 км)
Погода в Нукусе (Каракалпакстан, Узбекистан) (80 км)
Погода в Тахтакупыре (Каракалпакстан, Узбекистан) (83 км)
Погода в Кенеургенче (Дашогузский велаят, Туркменистан) (84 км)
Погода в Шах-Сенеме (Дашогузский велаят, Туркменистан) (93 км)
Погода в Чимбае (Каракалпакстан, Узбекистан) (133 км)
Погода в Тюя-Муюне (Лебапский велаят, Туркменистан) (144 км)

Пояснения к столбцам:

Ветер - указаны скорость ветра в м/с - средняя за 10 мин, порывы в срок и между сроками (в фигурных скобках) и направление, откуда дует ветер: С - северный, СВ - северо-восточный, В - восточный, ЮВ - юго-восточный, Ю - южный, ЮЗ - юго-западный, З - западный, СЗ - северо-западный.
Видимость - горизонтальная дальность видимости в метрах или километрах. При видимости от 1 до 10 км при отсутствии осадков обычно наблюдается дымка, при ухудшении видимости до 1 км и менее - туман. В сухую погоду видимость может ухудшаться дымом, пылью или мглою.
Явления - указаны атмосферные явления, наблюдавшиеся в срок или в последний час перед сроком; фигурными скобками обозначены явления, наблюдавшиеся между сроками (за 1-3 часа до срока); квадратными скобками обозначены град или гололедные отложения с указанием их диаметра в мм.
Облачность - указаны через наклонную черту общая и нижняя облачность в баллах и высота нижней границы облаков в метрах; квадратными скобками обозначены формы облаков: Ci - перистые, Cs - перисто-слоистые, Cc - перисто-кучевые, Ac - высококучевые, As - высокослоистые, Sc - слоисто-кучевые, Ns - слоисто-дождевые, Cu - кучевые, Cb - кучево-дождевые. Подробнее классификацию облаков см. в Атласе облаков (PDF).
T - Температура воздуха - температура, измеренная на высоте 2 м над землей.
Td - Температура точки росы - температура, при понижении до которой содержащийся в воздухе водяной пар достигнет насыщения.
f - Относительная влажность воздуха - влажноcть воздуха, измеренная на высоте 2 м над землей.
Te - Эффективная температура - температура, которую ощущает одетый по сезону человек в тени. Характеристика душности погоды. При расчете учитывается влияние влажности воздуха и скорости ветра на теплоощущения человека.
Tes - Эффективная температура на солнце - температура, которую ощущает человек, с поправкой на солнечный нагрев. Характеристика знойности погоды. Зависит от высоты солнца над горизонтом, облачности и скорости ветра. Ночью, в пасмурную погоду, а также при ветре 12 м/с и более поправка равна нулю.
P - Атмосферное давление - приведенное к уровню моря атмосферное давление.
Po - Атмосферное давление - измеренное на уровне метеостанции атмосферное давление.
Tmin - Минимальная температура - минимум температуры воздуха на высоте 2 м над землей.
Tmax - Максимальная температура - максимум температуры воздуха на высоте 2 м над землей.
R - Количество осадков - Количество выпавших осадков за период времени, мм. При наведении курсора мыши на число - период времени, за который выпало указанное количество осадков.
R24 - Количество осадков - Количество выпавших осадков за 24 часа, мм.
S - Снежный покров - Высота снежного покрова, см. При наведении курсора мыши на число - состояние снежного покрова и степень покрытия местности в баллах.